Flag for Libya Weather past 2 weeks in Benghazi, Libya

Now
81 °F

Passing clouds.


Feels Like: 82 °F
Forecast: 77 / 86 °F
Wind: 22 mph from West

Location: Souda Airport

Current Time: Aug 1, 2014 at 9:28:36 AM

Latest Report: Aug 1, 2014 at 8:50 AM


Visibility: N/A

Pressure: 29.68 "Hg

Humidity: 58%

Dew point: 64 °F

Location of BenghaziLocation

Historic Weather in Benghazi — Graph

°F

Benghazi temperature yesterday

Maximum temperature yesterday: 97 °F (at 11:20 AM)
Minimum temperature yesterday: 75 °F (at 2:50 AM)
Average temperature yesterday: 84 °F

Past Weeks' High & Low Weather Summary

 TemperatureHumidityPressure
High97 °F (Jul 28, 12:50 PM)94% (Jul 19, 11:50 PM)29.95 "Hg (Jul 19, 11:50 PM)
Low70 °F (Jul 18, 3:50 AM)23% (Jul 28, 3:50 PM)29.68 "Hg (Jul 31, 5:50 PM)
Average81 °F60%29.83 "Hg
* Reported Jul 17 7:20 AM — Aug 1 7:50 AM, Benghazi, Weather by CustomWeather, © 2014

Note: Actual official high and low records may vary slightly from our data, if they occured in-between our weather recording intervals... More about our weather records

Advertising

Benghazi weather history for previous 24 hours

 ConditionsComfort  
Time TempWeatherWind HumidityBarometerVisibility
7:50 AM
Aug 1
79 °FSunny.20 mph58%29.68 "Hg10 mi
7:20 AM77 °FSunny.No wind61%29.68 "Hg10 mi
6:50 AM77 °FSunny.31 mph61%29.71 "Hg10 mi
6:20 AM75 °FClear.21 mph69%29.68 "Hg10 mi
5:50 AM75 °FPassing clouds.31 mph69%29.68 "HgN/A
5:20 AM75 °FPassing clouds.25 mph69%29.68 "HgN/A
4:50 AM75 °FPassing clouds.18 mph69%29.68 "HgN/A
4:20 AM75 °FPassing clouds.15 mph69%29.68 "HgN/A
3:50 AM75 °FPassing clouds.17 mph69%29.68 "HgN/A
3:20 AM75 °FPassing clouds.23 mph69%29.68 "HgN/A
2:50 AM75 °FPassing clouds.20 mph69%29.68 "HgN/A
2:20 AM77 °FPassing clouds.21 mph74%29.71 "HgN/A
1:50 AM77 °FPassing clouds.18 mph74%29.71 "HgN/A
12:50 AM77 °FPassing clouds.18 mph69%29.71 "HgN/A
12:20 AM77 °FPassing clouds.21 mph69%29.71 "HgN/A
11:50 PM
Jul 31
77 °FPassing clouds.20 mph69%29.71 "HgN/A
11:20 PM77 °FPassing clouds.21 mph69%29.71 "HgN/A
10:50 PM77 °FClear.15 mph69%29.71 "Hg10 mi
10:20 PM77 °FPassing clouds.13 mph74%29.71 "HgN/A
9:50 PM77 °FPassing clouds.8 mph74%29.71 "HgN/A
9:20 PM79 °FPassing clouds.18 mph74%29.71 "HgN/A
8:50 PM79 °FPassing clouds.20 mph74%29.71 "HgN/A
8:20 PM79 °FPassing clouds.15 mph74%29.68 "HgN/A
7:50 PM79 °FPassing clouds.18 mph74%29.68 "HgN/A
7:20 PM84 °FSunny.16 mph40%29.71 "Hg10 mi
6:50 PM84 °FSunny.16 mph40%29.71 "Hg10 mi
6:20 PM88 °FSunny.15 mph33%29.68 "Hg10 mi
5:50 PM90 °FSunny.15 mph31%29.68 "Hg10 mi
5:20 PM91 °FSunny.7 mph30%29.71 "Hg10 mi
4:50 PM91 °FSunny.7 mph30%29.71 "Hg10 mi
3:50 PM93 °FSunny.10 mph36%29.74 "Hg10 mi
3:20 PM95 °FSunny.7 mph34%29.74 "Hg10 mi
2:50 PM95 °FSunny.7 mph34%29.74 "Hg10 mi
2:20 PM95 °FSunny.6 mph32%29.74 "Hg10 mi
1:50 PM95 °FSunny.6 mph32%29.74 "Hg10 mi
1:20 PM93 °FSunny.6 mph32%29.74 "Hg10 mi
12:50 PM95 °FSunny.7 mph28%29.74 "Hg10 mi
12:20 PM95 °FSunny.12 mph28%29.74 "Hg10 mi
11:50 AM95 °FSunny.12 mph30%29.77 "Hg10 mi
11:20 AM97 °FSunny.9 mph28%29.77 "Hg10 mi
10:50 AM95 °FSunny.5 mph26%29.77 "Hg10 mi
10:20 AM93 °FSunny.5 mph28%29.77 "Hg10 mi
9:50 AM91 °FSunny.No wind34%29.77 "Hg10 mi
9:20 AM88 °FSunny.No wind43%29.77 "Hg10 mi
Weather by CustomWeather, © 2014

See weather overviewHow to use our weather pages